Location: Bagnolo San Vito
(45.0833°N, 10.8833°E)
Time: 00:19:16
(UTC+00:00)

Okean 1-7 - Pass Details

Date: 03 March 2021
Orbit: 589 x 619 km, 82.5° (Epoch: 17 April)

Event Time Altitude Azimuth Distance (km) Brightness Sun altitude
Rises 17:57:57 0° 0° (N) 2,897 6.5 -9.8°
Reaches altitude 10° 18:00:26 10° 12° (NNE) 1,982 5.5 -10.3°
Maximum altitude 18:04:16 29° 73° (ENE) 1,129 3.9 -11.0°
Drops below altitude 10° 18:08:03 10° 134° (SE) 1,953 5.2 -11.6°
Enters shadow 18:08:49 - 139° (SE) 2,222 5.5 -11.8°
